Flag for Germany Weather past 2 weeks in Neu-Isenburg, Hesse, Germany

Now
68 °F

Scattered clouds.


Feels Like: 68 °F
Forecast: 54 / 71 °F
Wind: 2 mph from Southeast

Location: Frankfurt / M-Flughafen

Current Time: Aug 27, 2014 at 7:27:56 PM

Latest Report: Aug 27, 2014 at 6:00 PM


Visibility: 25 mi

Pressure: 30.02 "Hg

Humidity: 50%

Dew point: 48 °F

Location of Neu-IsenburgLocation

Historic Weather in Neu-Isenburg — Graph

°F

Neu-Isenburg temperature yesterday

Maximum temperature yesterday: 67 °F (at 3:00 PM)
Minimum temperature yesterday: 54 °F (at 5:00 AM)
Average temperature yesterday: 59 °F

Past Weeks' High & Low Weather Summary

 TemperatureHumidityPressure
High74 °F (Aug 12, 6:00 PM)96% (Aug 19, 7:00 AM)30.13 "Hg (Aug 19, 7:00 AM)
Low46 °F (Aug 22, 4:00 AM)32% (Aug 22, 5:00 PM)29.64 "Hg (Aug 13, 5:00 PM)
Average59 °F75%29.93 "Hg
* Reported Aug 12 6:00 PM — Aug 27 5:00 PM, Neu-Isenburg, Weather by CustomWeather, © 2014

Note: Actual official high and low records may vary slightly from our data, if they occured in-between our weather recording intervals... More about our weather records

Advertising

Neu-Isenburg weather history for previous 24 hours

 ConditionsComfort  
Time TempWeatherWind HumidityBarometerVisibility
5:00 PM
Aug 27
69 °FScattered clouds.2 mph47%30.02 "Hg25 mi
4:00 PM70 °FScattered clouds.2 mph49%30.02 "Hg25 mi
3:00 PM67 °FScattered clouds.1 mph54%30.02 "Hg25 mi
2:00 PM66 °FScattered clouds.1 mph56%30.03 "Hg25 mi
1:00 PM64 °FScattered clouds.2 mph62%30.03 "Hg19 mi
12:00 PM62 °FScattered clouds.2 mph71%30.03 "Hg19 mi
11:00 AM60 °FPartly sunny.3 mph77%30.01 "Hg19 mi
9:00 AM57 °FPartly sunny.3 mph87%29.97 "Hg11 mi
8:00 AM56 °FLow clouds.3 mph91%29.94 "Hg19 mi
7:00 AM55 °FPartly sunny.2 mph93%29.91 "Hg19 mi
6:00 AM55 °FLow clouds.3 mph94%29.88 "Hg19 mi
5:00 AM55 °FLow clouds.3 mph94%29.86 "Hg19 mi
4:00 AM56 °FLight rain. Low clouds.3 mph94%29.83 "Hg9 mi
3:00 AM56 °FRain. Low clouds.3 mph95%29.82 "Hg7 mi
2:00 AM56 °FRain. Low clouds.3 mph95%29.80 "Hg6 mi
1:00 AM57 °FRain. Low clouds.5 mph95%29.80 "Hg6 mi
12:00 AM57 °FHeavy rain. Low clouds.3 mph95%29.78 "Hg6 mi
10:00 PM
Aug 26
59 °FRain. Low clouds.2 mph95%29.75 "Hg6 mi
9:00 PM59 °FRain. Low clouds.1 mph95%29.73 "Hg9 mi
8:00 PM60 °FLight rain. Low clouds.3 mph94%29.71 "Hg9 mi
7:00 PM60 °FLow clouds.3 mph92%29.71 "Hg19 mi
Weather by CustomWeather, © 2014

See weather overviewHow to use our weather pages